Wind_Speed
32 33 32 31 31 30 29 29 29 28 28 31 31 30 30 29 25 27 38 38 36 22 35 29 26 20 10 6 4 6 5 4 3 5 5 5 5 7 2 4 7 9 8 5 6 5 12 15 7 9 4 10 13 11
33 33 32 32 32 33 33 32 31 30 30 29 29 29 29 28 28 25 35 36 38 33 25 28 29 32 38 39 22 17 7 8 11 4 5 3 4 3 4 4 0 4 6 5 10 5 1 25 2 11 11 15 12 10
35 35 34 32 31 30 29 27 27 27 28 29 29 28 29 28 27 27 34 31 30 27 29 39 31 33 30 36 38 14 11 12 10 10 4 4 5 4 6 6 4 3 3 3 1 3 4 15 10 12 10 12 11 9
36 36 35 34 31 30 31 31 28 28 26 25 25 25 25 26 26 26 32 36 32 9 4 11 20 16 22 27 32 30 29 16 13 19 4 3 3 8 3 1 6 3 9 5 2 3 6 11 13 16 14 12 10 8
31 32 31 31 31 30 31 29 28 27 29 26 25 23 23 22 23 25 28 35 38 28 4 5 10 15 18 18 19 22 22 15 8 4 3 3 2 3 1 1 3 5 5 6 5 9 5 6 20 19 17 13 9 8
32 33 32 31 30 29 29 28 28 28 28 28 26 25 22 20 18 21 15 30 38 32 8 3 6 6 8 9 11 11 11 11 5 3 2 1 1 1 3 3 2 3 3 4 4 11 7 18 19 17 14 10 7 8
32 32 32 32 32 32 30 28 29 28 28 27 25 28 25 23 21 23 11 6 14 35 8 2 2 2 6 4 3 4 4 3 3 3 2 1 1 3 1 3 5 7 9 11 12 14 10 13 7 12 10 8 7 8
34 33 31 31 30 31 31 31 29 28 28 28 28 27 26 26 27 29 35 22 17 25 8 3 0 2 6 3 3 3 3 3 6 3 2 2 1 2 3 5 9 9 9 8 6 5 4 11 9 8 7 7 7 8
30 31 30 30 30 30 32 30 27 28 28 27 24 21 20 22 19 19 18 22 26 11 5 4 5 3 5 3 4 3 3 2 3 2 2 2 1 3 1 9 12 13 6 8 7 5 6 6 6 5 5 6 7 7
30 28 30 31 33 32 30 30 28 25 24 17 15 14 7 6 8 9 10 9 9 4 2 2 5 3 3 2 2 2 3 1 1 2 2 1 2 2 3 11 11 11 6 8 9 6 7 6 4 4 5 7 8 9
33 32 31 31 31 34 29 26 26 23 22 17 9 8 6 16 10 5 4 4 1 2 2 3 3 3 3 2 2 1 2 1 1 3 2 2 3 3 8 12 12 9 8 7 5 3 3 4 5 7 8 9 11 12
32 30 30 32 30 30 29 24 23 21 17 14 11 11 14 8 4 3 2 0 2 4 3 3 4 5 5 4 3 1 2 1 2 2 2 2 3 5 13 14 13 10 8 6 4 2 4 6 8 9 10 10 11 13
30 30 30 30 31 28 26 22 20 20 22 18 6 6 7 3 3 5 8 3 2 5 8 7 4 5 4 4 3 2 3 2 1 2 3 4 2 9 13 15 14 11 8 4 3 6 7 8 9 9 10 11 13 13
28 27 29 28 32 24 22 20 18 17 16 6 7 5 5 5 4 3 3 2 3 10 19 16 6 3 4 3 1 4 1 2 2 1 4 3 5 10 14 15 13 9 6 5 7 9 9 8 8 10 11 12 14 12
24 26 26 25 21 17 18 18 17 18 12 6 3 4 2 3 6 4 6 5 6 19 17 10 7 5 2 4 2 4 2 2 5 4 3 4 6 10 13 13 11 8 6 8 9 8 7 9 9 9 9 11 12 9
25 20 17 14 15 15 15 16 16 14 1 5 7 4 5 4 2 3 9 11 14 17 9 6 3 3 2 3 3 4 6 5 3 3 6 8 7 8 10 10 8 7 8 7 8 8 8 8 9 9 9 8 7 6
14 14 12 13 14 9 7 5 5 7 7 5 4 12 6 6 5 3 7 7 14 2 2 2 3 2 3 2 1 3 4 3 5 10 10 7 5 7 8 7 7 6 5 6 7 7 8 8 8 9 7 3 4 4
13 10 6 11 10 4 3 7 7 8 7 9 4 8 9 9 9 7 9 10 3 3 1 1 7 3 4 4 3 3 4 7 10 9 7 5 5 5 4 4 4 4 5 5 5 6 6 8 7 4 5 4 3 2
7 2 7 8 7 1 6 7 7 5 8 5 8 9 10 9 13 13 11 7 7 7 9 2 3 2 2 2 3 7 13 11 9 11 8 6 5 4 4 4 4 4 3 3 3 3 2 2 3 3 3 3 2 3
8 1 5 5 1 5 6 7 6 8 3 5 7 9 5 6 6 8 7 5 4 2 3 2 2 2 3 5 5 6 10 10 10 12 10 8 6 5 5 4 4 4 4 4 3 4 5 5 4 3 3 3 4 3
8 11 8 5 11 14 9 6 8 6 6 6 5 5 5 6 4 4 5 5 4 2 0 1 3 7 9 8 7 7 8 7 7 5 3 10 8 6 5 5 4 4 4 4 4 5 7 6 7 7 9 8 5 7
11 8 8 12 9 8 10 12 7 5 5 4 3 4 4 2 4 6 5 3 1 1 1 3 7 7 8 7 7 8 7 7 6 4 5 6 9 8 7 6 7 5 6 5 5 6 6 6 3 1 5 7 8 10
9 9 10 12 7 9 4 6 5 5 3 2 2 2 2 3 6 6 2 2 2 3 3 4 7 7 7 5 5 5 5 5 4 4 6 6 6 6 6 6 6 7 6 6 7 6 4 3 6 9 9 10 12 13
11 9 9 8 11 3 4 6 5 4 3 2 2 2 3 4 7 4 2 3 2 3 7 6 7 8 7 7 6 5 4 4 5 7 8 8 8 7 7 7 8 7 7 7 8 7 7 6 6 10 12 14 13 8
8 12 8 7 8 5 5 3 3 3 3 4 2 3 4 7 3 3 2 3 5 4 7 9 8 9 7 5 6 7 8 7 7 7 8 9 9 10 10 10 10 9 10 10 9 8 8 8 8 8 9 9 4 3
8 12 7 7 5 4 3 3 4 2 2 4 2 5 4 2 4 2 3 6 5 4 6 7 8 9 9 8 7 6 6 8 9 11 9 11 11 11 10 12 11 10 10 9 9 9 8 7 7 7 8 7 8 11
7 5 7 10 4 3 5 7 5 5 4 4 3 4 3 4 3 3 6 4 3 4 3 5 7 7 5 6 7 8 9 9 10 10 11 10 10 11 13 13 12 8 11 9 9 9 8 6 5 6 6 5 7 9
7 12 4 14 8 9 3 3 4 2 3 4 3 3 2 4 3 5 4 8 6 5 4 4 5 7 8 8 9 9 9 10 11 11 12 12 13 13 13 12 12 13 13 11 11 9 7 5 5 5 8 12 12 11
7 15 6 6 5 7 6 2 2 3 5 3 1 3 4 5 9 9 11 11 9 9 8 7 6 7 8 9 9 9 10 10 11 12 12 12 11 9 10 10 11 14 15 13 11 13 14 13 12 14 17 15 13 12
10 15 4 4 4 3 4 5 5 7 6 6 7 7 7 7 10 14 15 14 13 11 11 11 11 10 10 10 10 10 10 10 11 12 14 14 12 10 9 9 9 10 12 13 12 11 12 13 16 18 20 18 15 14
11 8 4 5 0 4 9 11 9 8 7 5 7 6 8 9 9 11 15 19 18 17 17 16 14 13 12 12 12 12 12 10 10 10 11 13 13 13 13 13 11 11 11 10 10 10 9 11 11 12 12 12 12 13
12 9 4 4 3 9 9 12 8 5 4 5 4 8 10 7 7 13 18 23 26 25 20 17 14 11 10 11 11 11 12 13 13 13 14 15 14 12 11 12 12 12 11 10 10 10 11 12 12 13 13 13 13 13
6 7 5 5 4 5 9 12 3 8 3 3 4 8 9 7 4 14 21 25 34 27 24 20 14 12 11 11 10 11 12 13 15 16 15 13 13 14 12 10 10 7 7 10 14 16 16 16 17 18 17 17 16 16
Wind_Direction
283 281 281 283 283 283 281 282 281 281 286 288 283 281 279 278 273 267 258 252 237 252 258 257 250 242 241 204 197 160 112 184 169 194 204 205 219 211 172 186 178 173 180 195 210 226 259 145 120 176 179 125 152 160
283 284 285 284 280 278 278 277 276 278 282 279 278 279 278 274 269 259 259 261 254 246 259 272 264 263 253 255 256 192 208 159 182 182 201 208 208 186 185 236 351 212 202 182 196 213 272 166 90 171 153 154 160 176
282 281 279 280 282 283 283 284 280 275 277 277 277 274 277 277 274 263 256 257 245 238 258 263 264 259 248 249 245 237 223 213 202 184 168 199 224 164 185 220 171 234 157 215 160 169 176 180 149 167 171 168 172 193
284 283 282 283 283 286 288 285 285 284 282 277 277 277 271 270 269 268 258 252 245 227 235 252 247 244 244 242 240 236 237 219 224 199 190 197 203 191 219 270 198 132 146 172 241 141 124 193 196 177 169 174 183 200
292 290 287 287 288 288 289 290 289 288 288 283 281 281 278 268 264 267 262 255 248 222 222 240 254 259 244 238 234 232 231 217 178 172 204 213 101 135 59 36 212 197 169 184 220 166 150 162 177 172 171 178 200 225
292 290 290 289 289 289 289 290 289 289 290 287 283 281 274 273 268 264 263 258 247 239 236 239 240 224 227 223 227 229 223 207 188 162 129 108 142 260 191 224 85 119 126 111 154 163 147 155 165 174 185 192 219 250
285 290 290 290 289 288 289 291 292 289 290 295 289 286 277 265 254 246 227 239 208 218 211 242 251 203 181 170 126 91 120 99 97 90 65 96 68 10 257 239 114 130 115 108 128 134 119 162 177 187 202 218 231 256
287 279 284 285 286 285 283 285 288 291 291 291 288 288 279 270 258 256 242 235 191 190 189 213 257 196 165 110 82 92 87 81 47 87 58 40 44 20 258 106 126 137 131 131 149 202 164 179 184 197 219 240 251 251
294 292 289 289 289 288 287 284 281 284 289 297 290 282 283 252 236 242 234 213 192 200 185 152 158 198 139 96 99 77 85 74 31 67 65 332 11 226 89 169 168 172 173 167 162 147 155 174 183 211 241 259 267 267
285 290 293 287 286 285 285 284 280 278 283 289 279 264 234 210 200 203 165 179 210 236 107 100 112 131 113 112 72 101 60 106 103 285 340 74 258 231 219 190 192 183 193 168 162 166 185 199 218 250 268 277 282 283
278 283 287 291 293 291 281 282 279 274 274 264 231 217 177 162 162 188 147 150 157 356 55 101 110 129 129 131 125 31 124 154 126 266 126 315 276 218 180 175 176 176 177 182 194 185 199 235 258 275 281 281 284 287
278 282 283 287 289 288 282 281 276 266 259 246 228 166 166 192 198 181 168 300 185 201 126 119 114 111 107 109 106 99 104 64 215 152 73 282 250 182 179 179 180 179 178 181 192 248 290 298 295 289 286 286 287 289
279 283 283 285 285 284 274 277 271 268 268 236 241 152 158 174 216 217 200 240 182 166 157 149 117 112 107 93 79 111 97 178 27 47 238 230 209 186 181 186 186 188 191 207 260 290 299 298 290 282 283 292 295 302
282 283 286 287 290 272 269 272 261 254 212 193 176 190 193 183 231 179 155 166 100 134 133 122 100 104 112 80 109 97 65 100 54 344 239 250 212 183 185 187 194 197 210 255 277 285 289 285 282 280 286 293 297 303
285 284 288 282 289 281 275 266 254 249 212 187 208 201 93 116 62 79 87 89 107 141 127 107 86 94 81 102 64 113 89 233 205 229 228 186 168 182 187 191 194 206 255 275 273 276 277 281 285 281 284 293 295 295
289 290 295 295 291 286 275 265 255 234 80 63 53 74 85 67 16 33 107 114 139 139 109 88 104 88 84 120 135 196 138 216 237 215 171 157 155 173 184 192 211 254 270 264 266 266 264 280 280 286 298 295 282 272
312 288 301 302 320 297 251 152 114 70 68 44 34 53 64 82 105 93 126 129 144 64 73 114 98 105 113 82 168 192 199 216 182 156 148 145 153 173 191 221 244 253 258 259 263 262 272 277 277 295 295 253 276 265
307 310 289 290 307 260 85 55 76 63 59 32 51 13 43 60 88 94 121 127 80 86 89 116 126 131 158 150 239 222 173 151 143 148 157 171 182 193 208 222 236 247 247 253 259 265 270 279 285 280 269 270 224 127
339 285 216 234 253 26 74 48 45 83 60 65 51 45 56 65 87 111 113 81 91 102 117 88 81 131 208 209 179 170 172 165 173 178 186 199 220 218 215 224 230 240 235 241 266 250 209 276 286 254 223 240 261 241
30 125 181 190 227 76 76 45 56 77 58 48 40 35 47 49 76 73 73 80 59 27 42 51 180 196 161 144 131 155 165 171 168 167 189 198 190 191 194 210 212 228 242 251 218 224 275 265 253 226 180 306 283 256
76 68 80 92 60 62 73 49 60 68 86 74 39 47 63 56 37 26 22 12 9 43 40 172 150 133 129 133 136 144 156 170 179 186 178 190 192 184 193 203 217 227 228 226 222 195 249 261 240 253 260 276 263 276
70 84 68 50 66 68 67 39 80 90 76 92 53 42 55 23 6 3 344 342 315 238 179 166 159 152 147 146 148 151 160 173 181 183 169 180 186 199 209 215 224 231 234 234 254 257 253 257 224 232 271 266 261 279
47 39 52 38 73 52 45 38 60 36 62 45 42 42 24 6 347 332 285 261 272 230 194 169 168 164 166 172 178 177 178 183 188 199 208 208 219 225 225 228 233 236 241 247 255 249 236 220 233 262 269 261 274 287
50 49 34 42 43 66 56 40 47 52 74 49 45 37 349 311 334 26 257 283 262 225 197 192 197 198 204 216 215 209 210 218 219 225 230 234 242 239 244 242 241 240 242 243 251 252 251 244 236 247 265 281 289 287
63 15 30 21 30 48 41 32 19 38 62 24 59 343 329 341 20 3 278 298 314 240 205 203 211 220 232 244 237 230 237 242 248 255 248 246 242 241 246 243 243 239 240 247 249 253 248 251 263 277 282 282 262 289
65 26 41 13 13 44 7 49 22 13 57 24 337 308 337 59 40 308 255 317 327 305 247 235 233 231 244 251 257 261 264 255 254 255 251 254 254 255 254 251 250 246 250 250 245 246 241 248 269 280 284 277 267 272
47 356 18 22 350 3 44 42 49 67 49 19 312 354 31 45 301 264 310 316 319 319 277 233 243 257 269 267 273 265 266 266 268 269 264 265 263 258 254 255 257 259 251 250 246 241 234 246 269 284 278 285 294 293
46 29 16 347 35 30 99 42 40 28 292 338 302 357 136 198 251 318 314 325 303 310 299 285 262 255 260 270 275 278 277 274 271 271 271 273 273 270 268 264 255 248 254 251 246 239 234 262 299 288 302 307 302 288
30 354 358 17 32 42 49 88 278 332 325 296 176 277 267 268 305 315 326 324 312 305 304 299 294 286 283 285 287 287 285 282 279 278 282 287 288 291 282 270 256 250 251 254 237 252 279 289 298 304 300 293 293 286
5 4 40 26 61 8 358 1 330 322 314 305 296 299 294 305 327 331 328 325 318 308 294 288 288 292 297 298 302 302 302 296 292 289 289 294 295 289 285 277 264 252 245 246 246 243 241 250 247 250 270 284 289 289
351 356 40 33 18 338 334 330 324 315 314 308 313 297 309 319 344 360 5 359 345 331 316 306 300 298 300 308 311 313 317 313 312 305 301 298 296 288 278 271 267 256 247 245 247 251 256 264 275 280 283 289 293 290
7 23 9 1 323 336 339 346 325 317 305 318 324 342 342 326 326 359 359 2 358 351 342 323 309 303 296 300 306 308 305 310 317 306 297 301 308 307 299 282 270 263 251 241 250 257 264 273 281 285 287 289 293 293
349 0 1 326 315 346 347 342 315 340 273 301 334 346 356 344 326 1 357 356 355 352 352 346 331 314 284 292 313 320 317 309 309 315 318 311 313 317 320 331 329 301 259 268 272 270 271 279 287 287 286 288 291 291
Height
1450 1448 1446 1444 1442 1440 1437 1435 1433 1432 1431 1430 1428 1427 1426 1425 1426 1426 1421 1424 1426 1418 1409 1413 1413 1413 1412 1411 1410 1410 1417 1418 1421 1421 1420 1416 1414 1414 1418 1412 1417 1416 1423 1426 1422 1428 1415 1412 1425 1424 1413 1413 1416 1420
1439 1437 1435 1433 1431 1429 1427 1425 1422 1420 1420 1418 1417 1417 1416 1416 1415 1415 1413 1412 1413 1413 1401 1399 1400 1399 1400 1402 1401 1400 1396 1398 1400 1406 1408 1406 1402 1409 1405 1404 1409 1408 1399 1406 1406 1401 1406 1406 1407 1409 1410 1411 1416 1419
1428 1426 1424 1423 1421 1419 1416 1414 1412 1409 1408 1407 1406 1405 1405 1406 1405 1405 1402 1403 1402 1401 1396 1390 1385 1386 1387 1388 1390 1390 1388 1389 1388 1387 1391 1393 1393 1392 1393 1390 1392 1399 1400 1399 1400 1404 1404 1406 1406 1408 1410 1411 1414 1417
1418 1415 1413 1412 1410 1410 1407 1404 1403 1401 1398 1395 1394 1394 1394 1394 1395 1395 1392 1392 1393 1391 1387 1376 1375 1375 1375 1377 1378 1378 1377 1377 1379 1381 1383 1383 1383 1381 1379 1379 1380 1388 1394 1394 1397 1402 1404 1404 1403 1405 1407 1409 1412 1415
1408 1406 1403 1401 1400 1399 1398 1395 1394 1392 1389 1387 1385 1383 1383 1382 1383 1383 1381 1379 1378 1382 1376 1372 1368 1368 1368 1369 1370 1371 1372 1372 1373 1376 1376 1376 1378 1381 1385 1385 1383 1383 1383 1385 1380 1386 1390 1394 1399 1403 1405 1407 1410 1412
1399 1397 1394 1393 1391 1388 1387 1386 1384 1383 1381 1379 1377 1376 1374 1374 1375 1374 1368 1364 1365 1369 1368 1367 1365 1362 1364 1365 1366 1367 1369 1370 1371 1371 1374 1376 1377 1380 1380 1378 1381 1381 1383 1383 1385 1388 1390 1394 1398 1402 1405 1406 1407 1408
1389 1388 1385 1384 1382 1381 1378 1376 1376 1375 1373 1370 1369 1367 1366 1365 1365 1362 1357 1353 1353 1359 1360 1361 1361 1362 1363 1364 1365 1368 1368 1370 1372 1375 1377 1379 1379 1379 1378 1374 1383 1384 1386 1387 1389 1392 1397 1398 1399 1401 1403 1404 1406 1406
1378 1376 1374 1373 1371 1371 1370 1368 1367 1366 1365 1363 1361 1358 1355 1356 1354 1349 1346 1348 1348 1352 1353 1353 1360 1364 1363 1364 1368 1369 1370 1371 1374 1377 1380 1381 1382 1382 1379 1384 1385 1387 1389 1391 1392 1393 1394 1397 1399 1401 1402 1402 1403 1404
1369 1367 1365 1364 1363 1360 1360 1359 1357 1357 1357 1355 1353 1350 1346 1345 1343 1340 1341 1341 1341 1346 1343 1346 1356 1360 1363 1365 1367 1370 1371 1376 1379 1380 1382 1384 1385 1381 1381 1383 1384 1386 1388 1390 1392 1394 1395 1398 1399 1400 1400 1401 1401 1401
1361 1359 1356 1354 1353 1351 1350 1349 1349 1348 1349 1348 1346 1346 1338 1335 1335 1337 1339 1341 1342 1340 1341 1346 1352 1359 1363 1366 1370 1372 1373 1379 1381 1387 1385 1385 1383 1380 1379 1381 1383 1385 1387 1389 1391 1394 1395 1396 1398 1398 1398 1398 1398 1397
1349 1348 1346 1345 1343 1341 1341 1340 1339 1341 1341 1340 1335 1334 1336 1335 1336 1336 1335 1337 1340 1344 1344 1349 1351 1356 1362 1363 1369 1373 1374 1378 1383 1389 1388 1394 1383 1377 1377 1379 1382 1384 1386 1388 1390 1392 1394 1395 1396 1396 1396 1396 1395 1394
1338 1336 1336 1335 1333 1332 1331 1331 1332 1332 1330 1331 1330 1328 1332 1333 1334 1336 1337 1341 1338 1338 1345 1348 1351 1354 1359 1361 1366 1373 1375 1379 1387 1388 1392 1393 1375 1374 1376 1379 1381 1383 1385 1388 1389 1391 1392 1393 1393 1393 1393 1393 1392 1390
1326 1326 1325 1324 1323 1322 1321 1322 1323 1325 1322 1323 1325 1324 1326 1332 1331 1331 1335 1337 1340 1336 1340 1344 1351 1355 1359 1363 1367 1370 1376 1388 1387 1396 1390 1379 1372 1373 1375 1377 1380 1382 1384 1386 1387 1389 1389 1389 1390 1390 1389 1389 1387 1386
1317 1316 1315 1314 1312 1311 1313 1314 1316 1317 1316 1314 1318 1322 1321 1323 1320 1321 1330 1334 1332 1333 1336 1340 1348 1353 1358 1362 1367 1372 1384 1384 1397 1400 1389 1376 1369 1371 1373 1376 1379 1381 1383 1384 1385 1386 1386 1387 1387 1387 1386 1386 1384 1383
1308 1307 1306 1304 1303 1304 1306 1307 1308 1309 1309 1307 1310 1310 1320 1328 1328 1330 1329 1331 1332 1336 1336 1341 1348 1352 1358 1364 1370 1377 1385 1391 1389 1383 1376 1368 1368 1370 1372 1375 1378 1379 1381 1381 1382 1383 1384 1385 1384 1384 1384 1382 1381 1380
1300 1299 1298 1298 1297 1298 1299 1299 1302 1304 1303 1306 1315 1321 1325 1327 1332 1333 1331 1332 1335 1337 1338 1340 1346 1353 1361 1363 1367 1369 1375 1381 1372 1369 1366 1367 1368 1370 1372 1375 1376 1377 1378 1378 1379 1381 1382 1382 1381 1381 1381 1379 1378 1378
1295 1294 1294 1294 1293 1292 1292 1293 1296 1302 1312 1320 1326 1327 1330 1331 1333 1335 1335 1336 1338 1339 1340 1342 1345 1355 1363 1365 1371 1372 1371 1365 1362 1364 1365 1366 1368 1370 1372 1373 1374 1375 1375 1376 1377 1378 1379 1379 1379 1378 1378 1377 1376 1376
1292 1291 1292 1290 1291 1291 1292 1295 1303 1314 1326 1331 1333 1335 1334 1333 1333 1337 1339 1340 1340 1341 1342 1344 1348 1355 1359 1363 1366 1359 1359 1361 1362 1363 1365 1366 1368 1369 1370 1371 1372 1373 1374 1375 1376 1376 1376 1376 1376 1375 1375 1375 1375 1375
1289 1288 1289 1289 1291 1291 1297 1308 1313 1325 1336 1338 1339 1339 1339 1340 1341 1342 1343 1343 1343 1343 1344 1345 1349 1356 1355 1353 1353 1355 1357 1358 1360 1362 1365 1367 1367 1367 1368 1369 1370 1371 1372 1373 1373 1374 1374 1374 1374 1373 1373 1374 1374 1374
1291 1290 1290 1291 1292 1294 1307 1318 1323 1330 1340 1345 1345 1345 1345 1347 1348 1348 1348 1347 1346 1346 1346 1349 1351 1350 1351 1351 1352 1354 1355 1357 1359 1362 1364 1364 1365 1366 1367 1368 1369 1370 1371 1371 1372 1373 1373 1372 1372 1372 1372 1373 1372 1372
1294 1294 1294 1294 1294 1302 1317 1327 1332 1340 1344 1348 1351 1350 1352 1352 1352 1351 1350 1349 1349 1349 1351 1350 1350 1351 1352 1353 1354 1355 1356 1358 1359 1361 1360 1361 1363 1365 1366 1367 1368 1368 1369 1369 1370 1370 1370 1370 1370 1370 1370 1370 1370 1370
1297 1298 1298 1299 1305 1316 1328 1336 1340 1345 1348 1352 1353 1354 1355 1356 1356 1355 1354 1352 1352 1351 1351 1351 1352 1353 1354 1354 1355 1356 1357 1358 1358 1359 1359 1361 1362 1363 1364 1365 1366 1366 1367 1367 1367 1368 1367 1367 1367 1368 1368 1368 1368 1367
1302 1302 1305 1311 1317 1329 1346 1344 1345 1349 1352 1356 1357 1359 1360 1359 1358 1358 1356 1353 1352 1352 1352 1352 1353 1353 1354 1355 1356 1357 1357 1357 1358 1359 1360 1361 1362 1362 1363 1363 1364 1364 1364 1365 1365 1365 1365 1365 1365 1365 1365 1365 1364 1363
1307 1312 1319 1326 1334 1346 1348 1351 1353 1355 1357 1358 1360 1362 1363 1362 1360 1358 1359 1353 1352 1352 1352 1352 1353 1353 1354 1355 1355 1356 1356 1357 1357 1358 1359 1359 1360 1360 1361 1361 1361 1362 1362 1362 1362 1362 1362 1362 1363 1362 1361 1361 1361 1360
1319 1339 1340 1347 1349 1350 1355 1358 1359 1359 1362 1364 1367 1370 1367 1365 1368 1369 1363 1352 1350 1350 1350 1351 1352 1352 1353 1353 1354 1354 1355 1355 1355 1356 1357 1357 1358 1357 1358 1358 1358 1359 1359 1359 1359 1359 1359 1359 1359 1358 1358 1358 1358 1358
1346 1357 1358 1360 1362 1361 1363 1367 1368 1370 1371 1375 1376 1372 1369 1371 1370 1366 1358 1352 1350 1349 1349 1349 1350 1351 1351 1352 1352 1353 1353 1353 1353 1353 1354 1354 1354 1354 1354 1354 1355 1355 1355 1355 1355 1355 1356 1356 1355 1355 1355 1355 1355 1355
1366 1371 1370 1370 1368 1368 1369 1370 1371 1373 1381 1382 1379 1376 1376 1376 1374 1359 1353 1352 1351 1350 1349 1349 1350 1350 1351 1351 1351 1351 1351 1351 1351 1351 1351 1351 1350 1350 1350 1350 1350 1352 1351 1351 1352 1352 1353 1353 1353 1353 1353 1352 1352 1351
1376 1377 1381 1377 1373 1375 1378 1380 1383 1386 1383 1380 1379 1378 1373 1373 1366 1357 1354 1353 1352 1351 1350 1349 1349 1349 1349 1349 1349 1348 1348 1348 1348 1348 1347 1347 1346 1346 1346 1346 1346 1346 1346 1347 1347 1348 1349 1350 1350 1350 1350 1349 1348 1348
1383 1382 1380 1381 1379 1380 1384 1386 1386 1384 1382 1380 1380 1376 1369 1363 1359 1356 1355 1353 1352 1350 1350 1349 1348 1348 1347 1347 1346 1346 1345 1345 1345 1344 1343 1343 1343 1343 1341 1341 1341 1342 1342 1343 1344 1345 1345 1346 1346 1346 1345 1344 1344 1343
1389 1386 1385 1386 1387 1391 1389 1386 1384 1382 1380 1379 1377 1373 1367 1362 1359 1358 1355 1353 1352 1350 1349 1348 1347 1346 1346 1345 1344 1344 1343 1342 1342 1341 1340 1340 1339 1339 1338 1338 1338 1338 1338 1338 1339 1340 1341 1342 1342 1341 1340 1339 1338 1337
1394 1391 1390 1391 1391 1390 1387 1385 1383 1381 1379 1377 1375 1373 1369 1364 1360 1359 1358 1355 1352 1349 1347 1346 1345 1344 1343 1343 1343 1342 1341 1340 1339 1338 1337 1336 1335 1334 1334 1333 1333 1333 1334 1334 1335 1336 1336 1336 1336 1335 1335 1334 1334 1333
1397 1396 1396 1395 1391 1390 1387 1385 1383 1380 1379 1377 1375 1373 1370 1367 1364 1363 1361 1357 1354 1350 1346 1343 1341 1341 1341 1341 1340 1340 1338 1337 1336 1335 1334 1332 1331 1331 1330 1329 1329 1329 1329 1330 1331 1331 1331 1331 1331 1330 1330 1329 1329 1328
1400 1399 1398 1396 1393 1390 1389 1388 1384 1382 1380 1378 1377 1375 1373 1372 1368 1368 1364 1360 1356 1349 1345 1342 1339 1338 1338 1338 1338 1338 1336 1335 1333 1331 1329 1328 1327 1327 1327 1327 1326 1325 1326 1326 1326 1326 1326 1326 1325 1325 1324 1324 1323 1322